When you browse on this site, cookies collect data to enhance your experience and personalize the content and advertising you see.
Visit our Privacy Policy to learn more. By continuing to use the site, you agree to this use of cookies and data.
  • In Österreich
  • Länderverzeichnis
  • Für 7 Tage
  • Wassertemperatur
  • Wetterkarte
  • News
  • Widgets
  • user-avatar
    Anmelden

    Stündliche Wetter Nkongsamba

    Heute, 12 Dezember, Donnerstag

    Zeit Temperatur Niederschläge Wind Luftdruck Luftfeuchtigkeit
    00:00 +19°C° 0 mm 0 m/S 685 mmHg 86%
    01:00 +19°C° 0 mm 0 m/S 685 mmHg 85%
    02:00 +19°C° 0 mm 0 m/S 684 mmHg 84%
    03:00 +18°C° 0 mm 0 m/S 684 mmHg 83%
    04:00 +18°C° 0 mm 0 m/S 684 mmHg 81%
    05:00 +20°C° 0 mm 1 m/S 684 mmHg 79%
    06:00 +20°C° 0 mm 1 m/S 685 mmHg 77%
    07:00 +20°C° 0 mm 1 m/S 685 mmHg 76%
    08:00 +21°C° 0 mm 0 m/S 686 mmHg 67%
    09:00 +24°C° 0 mm 0 m/S 686 mmHg 58%
    10:00 +27°C° 0 mm 0 m/S 687 mmHg 49%
    11:00 +30°C° 0 mm 1 m/S 687 mmHg 45%
    12:00 +31°C° 0 mm 1 m/S 686 mmHg 41%
    13:00 +32°C° 0 mm 1 m/S 685 mmHg 37%
    14:00 +31°C° 0 mm 1 m/S 685 mmHg 38%
    15:00 +31°C° 0 mm 1 m/S 684 mmHg 40%
    16:00 +31°C° 0 mm 1 m/S 684 mmHg 41%
    17:00 +28°C° 0 mm 1 m/S 684 mmHg 52%
    18:00 +26°C° 0 mm 1 m/S 684 mmHg 62%
    19:00 +24°C° 0 mm 1 m/S 684 mmHg 73%
    20:00 +21°C° 0 mm 0 m/S 684 mmHg 77%
    21:00 +21°C° 0 mm 0 m/S 685 mmHg 81%
    22:00 +20°C° 0 mm 0 m/S 685 mmHg 84%
    23:00 +20°C° 0 mm 0 m/S 685 mmHg 85%

    Morgen, 13 Dezember, Freitag

    Zeit Temperatur Niederschläge Wind Luftdruck Luftfeuchtigkeit
    00:00 +20°C° 0 mm 0 m/S 685 mmHg 85%
    01:00 +20°C° 0 mm 0 m/S 684 mmHg 85%
    02:00 +19°C° 0 mm 0 m/S 684 mmHg 85%
    03:00 +19°C° 0 mm 0 m/S 684 mmHg 85%
    04:00 +19°C° 0 mm 0 m/S 684 mmHg 84%
    05:00 +19°C° 0 mm 0 m/S 685 mmHg 83%
    06:00 +19°C° 0 mm 0 m/S 685 mmHg 82%
    07:00 +19°C° 0 mm 0 m/S 686 mmHg 81%
    08:00 +22°C° 0 mm 0 m/S 686 mmHg 72%
    09:00 +24°C° 0 mm 0 m/S 687 mmHg 62%
    10:00 +26°C° 0 mm 0 m/S 688 mmHg 52%
    11:00 +29°C° 0 mm 1 m/S 687 mmHg 48%
    12:00 +30°C° 0 mm 1 m/S 686 mmHg 44%
    13:00 +31°C° 0 mm 1 m/S 686 mmHg 40%
    14:00 +31°C° 0 mm 1 m/S 685 mmHg 42%
    15:00 +31°C° 0 mm 1 m/S 685 mmHg 44%
    16:00 +30°C° 0 mm 1 m/S 684 mmHg 45%
    17:00 +28°C° 0 mm 1 m/S 684 mmHg 54%
    18:00 +26°C° 0 mm 1 m/S 684 mmHg 63%
    19:00 +22°C° 0 mm 0 m/S 684 mmHg 71%
    20:00 +21°C° 0 mm 0 m/S 685 mmHg 74%
    21:00 +21°C° 0 mm 0 m/S 685 mmHg 78%
    22:00 +20°C° 0 mm 0 m/S 686 mmHg 81%
    23:00 +20°C° 0 mm 0 m/S 686 mmHg 81%

    übermorgen, 14 Dezember, Samstag

    Zeit Temperatur Niederschläge Wind Luftdruck Luftfeuchtigkeit
    00:00 +20°C° 0 mm 0 m/S 685 mmHg 80%
    01:00 +19°C° 0 mm 0 m/S 685 mmHg 80%
    02:00 +19°C° 0 mm 0 m/S 685 mmHg 79%
    03:00 +19°C° 0 mm 0 m/S 685 mmHg 78%
    04:00 +19°C° 0 mm 0 m/S 684 mmHg 77%
    05:00 +19°C° 0 mm 0 m/S 685 mmHg 77%
    06:00 +19°C° 0 mm 0 m/S 685 mmHg 76%
    07:00 +19°C° 0 mm 0 m/S 686 mmHg 76%
    08:00 +22°C° 0 mm 0 m/S 686 mmHg 67%
    09:00 +24°C° 0 mm 0 m/S 687 mmHg 59%
    10:00 +26°C° 0 mm 0 m/S 688 mmHg 51%
    11:00 +29°C° 0 mm 1 m/S 687 mmHg 48%
    12:00 +30°C° 0 mm 1 m/S 687 mmHg 45%
    13:00 +31°C° 0 mm 1 m/S 686 mmHg 41%
    14:00 +31°C° 0 mm 1 m/S 685 mmHg 44%
    15:00 +30°C° 0 mm 1 m/S 685 mmHg 46%
    16:00 +30°C° 0 mm 1 m/S 684 mmHg 48%
    17:00 +28°C° 0 mm 1 m/S 684 mmHg 57%
    18:00 +26°C° 0 mm 1 m/S 684 mmHg 66%
    19:00 +24°C° 0 mm 1 m/S 684 mmHg 75%
    20:00 +21°C° 0 mm 0 m/S 685 mmHg 80%
    21:00 +21°C° 0 mm 0 m/S 685 mmHg 84%
    22:00 +20°C° 0 mm 0 m/S 686 mmHg 88%
    23:00 +20°C° 0 mm 0 m/S 686 mmHg 88%

    15 Dezember, Sonntag

    Zeit Temperatur Niederschläge Wind Luftdruck Luftfeuchtigkeit
    00:00 +20°C° 0 mm 0 m/S 685 mmHg 89%
    01:00 +19°C° 0 mm 0 m/S 685 mmHg 89%
    02:00 +19°C° 0 mm 0 m/S 685 mmHg 88%
    03:00 +19°C° 0 mm 0 m/S 684 mmHg 86%
    04:00 +18°C° 0 mm 0 m/S 684 mmHg 85%
    05:00 +19°C° 0 mm 0 m/S 685 mmHg 83%
    06:00 +19°C° 0 mm 0 m/S 685 mmHg 81%
    07:00 +19°C° 0 mm 0 m/S 685 mmHg 80%
    08:00 +21°C° 0 mm 0 m/S 686 mmHg 70%
    09:00 +24°C° 0 mm 0 m/S 687 mmHg 61%
    10:00 +26°C° 0 mm 0 m/S 687 mmHg 52%
    11:00 +29°C° 0 mm 1 m/S 687 mmHg 48%
    12:00 +30°C° 0 mm 1 m/S 686 mmHg 45%
    13:00 +31°C° 0 mm 1 m/S 685 mmHg 42%
    14:00 +30°C° 0 mm 1 m/S 685 mmHg 43%
    15:00 +30°C° 0 mm 1 m/S 684 mmHg 44%
    16:00 +30°C° 0 mm 1 m/S 684 mmHg 46%
    17:00 +28°C° 0 mm 1 m/S 683 mmHg 54%
    18:00 +26°C° 0 mm 1 m/S 683 mmHg 62%
    19:00 +24°C° 0 mm 1 m/S 683 mmHg 71%
    20:00 +21°C° 0 mm 0 m/S 684 mmHg 73%
    21:00 +21°C° 0 mm 0 m/S 684 mmHg 76%
    22:00 +20°C° 0 mm 0 m/S 684 mmHg 79%
    23:00 +20°C° 0 mm 0 m/S 684 mmHg 78%

    16 Dezember, Montag

    Zeit Temperatur Niederschläge Wind Luftdruck Luftfeuchtigkeit
    00:00 +20°C° 0 mm 0 m/S 684 mmHg 76%
    01:00 +19°C° 0 mm 0 m/S 684 mmHg 75%
    02:00 +19°C° 0 mm 0 m/S 684 mmHg 74%
    03:00 +19°C° 0 mm 0 m/S 683 mmHg 73%
    04:00 +18°C° 0 mm 0 m/S 683 mmHg 72%
    05:00 +18°C° 0 mm 0 m/S 683 mmHg 70%
    06:00 +18°C° 0 mm 0 m/S 684 mmHg 68%
    07:00 +18°C° 0 mm 0 m/S 684 mmHg 67%
    08:00 +21°C° 0 mm 0 m/S 685 mmHg 59%
    09:00 +24°C° 0 mm 0 m/S 685 mmHg 52%
    10:00 +27°C° 0 mm 0 m/S 686 mmHg 44%
    11:00 +30°C° 0 mm 1 m/S 685 mmHg 41%
    12:00 +31°C° 0 mm 1 m/S 685 mmHg 37%
    13:00 +32°C° 0 mm 1 m/S 684 mmHg 33%
    14:00 +32°C° 0 mm 1 m/S 684 mmHg 33%
    15:00 +32°C° 0 mm 1 m/S 683 mmHg 34%
    16:00 +31°C° 0 mm 1 m/S 682 mmHg 34%
    17:00 +29°C° 0 mm 1 m/S 682 mmHg 44%
    18:00 +26°C° 0 mm 1 m/S 682 mmHg 53%
    19:00 +22°C° 0 mm 0 m/S 682 mmHg 63%
    20:00 +21°C° 0 mm 0 m/S 683 mmHg 66%
    21:00 +21°C° 0 mm 0 m/S 683 mmHg 69%
    22:00 +20°C° 0 mm 0 m/S 683 mmHg 72%
    23:00 +20°C° 0 mm 0 m/S 683 mmHg 74%

    17 Dezember, Dienstag

    Zeit Temperatur Niederschläge Wind Luftdruck Luftfeuchtigkeit
    00:00 +20°C° 0 mm 0 m/S 683 mmHg 75%
    01:00 +19°C° 0 mm 0 m/S 683 mmHg 77%
    02:00 +19°C° 0 mm 0 m/S 683 mmHg 77%
    03:00 +19°C° 0 mm 0 m/S 683 mmHg 77%
    04:00 +19°C° 0 mm 0 m/S 682 mmHg 78%
    05:00 +19°C° 0 mm 0 m/S 683 mmHg 75%
    06:00 +19°C° 0 mm 0 m/S 683 mmHg 73%
    07:00 +19°C° 0 mm 0 m/S 683 mmHg 70%
    08:00 +21°C° 0 mm 0 m/S 684 mmHg 63%
    09:00 +26°C° 0 mm 1 m/S 685 mmHg 56%
    10:00 +29°C° 0 mm 1 m/S 685 mmHg 49%
    11:00 +30°C° 0 mm 1 m/S 685 mmHg 46%
    12:00 +31°C° 0 mm 1 m/S 685 mmHg 42%
    13:00 +32°C° 0 mm 1 m/S 684 mmHg 39%
    14:00 +31°C° 0 mm 2 m/S 684 mmHg 41%
    15:00 +31°C° 0 mm 2 m/S 683 mmHg 43%
    16:00 +30°C° 0 mm 2 m/S 682 mmHg 45%
    17:00 +28°C° 0 mm 1 m/S 682 mmHg 54%
    18:00 +26°C° 0 mm 1 m/S 683 mmHg 63%
    19:00 +24°C° 0 mm 1 m/S 683 mmHg 72%
    20:00 +21°C° 0 mm 0 m/S 683 mmHg 77%
    21:00 +21°C° 0 mm 0 m/S 683 mmHg 81%
    22:00 +20°C° 0 mm 0 m/S 684 mmHg 86%
    23:00 +20°C° 0 mm 0 m/S 684 mmHg 86%
    Mehr zeigen